Weather History for Murray, KY

Change the Weather History Date:

Tuesday, March 13, 2012

  Actual Average (KPAH) Record (KPAH)
Temperature  
Mean Temperature 68 °F 47 °F  
Max Temperature 77 °F 58 °F 85 °F (1967)
Min Temperature 60 °F 37 °F 15 °F (1948)
Degree Days  
Heating Degree Days 0 18  
Month to date heating degree days 255  
Since 1 July heating degree days 3551  
Cooling Degree Days 4 0  
Month to date cooling degree days 0  
Year to date cooling degree days 0  
Growing Degree Days 18 (Base 50)    
Moisture  
Dew Point 58 °F    
Average Humidity 74    
Maximum Humidity 94    
Minimum Humidity 47    
Precipitation  
Precipitation 0.00 in 0.12 in 1.23 in (1978)
Month to date precipitation 1.55  
Year to date precipitation 9.14  
Snow  
Snow 0.00 in 0.00 in 2.00 in (1958)
Month to date snowfall 0.4  
Since 1 July snowfall 8.9  
Snow Depth -    
Sea Level Pressure  
Sea Level Pressure 30.13 in    
Wind  
Wind Speed 8 mph (SSW)    
Max Wind Speed 13 mph    
Max Gust Speed 18 mph    
Visibility 10 miles    
Events      
T = Trace of Precipitation, MM = Missing Value Source: NWS Daily Summary

Daily Weather History Graph

Daily Weather History Graph

Search for Another Location

Airport:

Trip Planner

Search our weather history database for the weather conditions in past years. The results will help you decide how hot, cold, wet, or windy it might be!

Date:

Astronomy

Mar. 13, 2012 Rise Set
Actual Time 7:06 AM CDT 6:59 PM CDT
Civil Twilight 6:40 AM CDT 7:25 PM CDT
Nautical Twilight 6:10 AM CDT 7:55 PM CDT
Astronomical Twilight 5:40 AM CDT 8:25 PM CDT
Moon 12:21 AM CDT (3/13) 10:29 AM CDT (3/13)
Length of Visible Light 12h 44m
Length of Day
11h 52m
Waning Gibbous, 65% of the Moon is Illuminated
Mar 13
Waning Gibbous
Mar 14
Last Quarter
Mar 22
New
Mar 30
First Quarter
Apr 6
Full

Hourly Weather History & Observations

Time (CDT) Temp. Dew Point Humidity Pressure Visibility Wind Dir Wind Speed Gust Speed Precip Events Conditions
12:15 AM 62.6 °F 59.0 °F 88% 30.09 in 10.0 mi South 5.8 mph - N/A   Mostly Cloudy
12:35 AM 62.6 °F 59.0 °F 88% 30.08 in 10.0 mi South 5.8 mph - N/A   Scattered Clouds
12:55 AM 62.6 °F 59.0 °F 88% 30.09 in 10.0 mi SSE 6.9 mph - N/A   Clear
1:15 AM 62.6 °F 59.0 °F 88% 30.09 in 10.0 mi SSE 6.9 mph - N/A   Clear
1:35 AM 62.6 °F 59.0 °F 88% 30.10 in 10.0 mi South 6.9 mph - N/A   Clear
1:55 AM 62.6 °F 59.0 °F 88% 30.10 in 10.0 mi South 8.1 mph - N/A   Scattered Clouds
2:15 AM 62.6 °F 59.0 °F 88% 30.10 in 10.0 mi South 6.9 mph - N/A   Scattered Clouds
2:35 AM 62.6 °F 59.0 °F 88% 30.10 in 10.0 mi South 6.9 mph - N/A   Scattered Clouds
2:55 AM 62.6 °F 59.0 °F 88% 30.10 in 10.0 mi South 9.2 mph - N/A   Partly Cloudy
3:15 AM 62.6 °F 60.8 °F 94% 30.10 in 10.0 mi South 9.2 mph - N/A   Clear
3:55 AM 62.6 °F 60.8 °F 94% 30.09 in 10.0 mi SSW 9.2 mph - N/A   Clear
4:15 AM 62.6 °F 60.8 °F 94% 30.10 in 10.0 mi SW 10.4 mph - N/A   Mostly Cloudy
4:55 AM 64.4 °F 60.8 °F 88% 30.10 in 10.0 mi SSW 12.7 mph - N/A   Mostly Cloudy
5:15 AM 64.4 °F 60.8 °F 88% 30.11 in 10.0 mi SSW 10.4 mph 17.3 mph N/A   Mostly Cloudy
5:35 AM 62.6 °F 60.8 °F 94% 30.11 in 10.0 mi SSW 10.4 mph - N/A   Mostly Cloudy
5:55 AM 62.6 °F 60.8 °F 94% 30.11 in 10.0 mi SSW 9.2 mph - N/A   Mostly Cloudy
6:15 AM 62.6 °F 59.0 °F 88% 30.12 in 10.0 mi SSW 8.1 mph - N/A   Mostly Cloudy
6:35 AM 62.6 °F 59.0 °F 88% 30.12 in 10.0 mi SSW 9.2 mph 16.1 mph N/A   Mostly Cloudy
6:55 AM 62.6 °F 59.0 °F 88% 30.13 in 10.0 mi SSW 9.2 mph 16.1 mph N/A   Scattered Clouds
7:15 AM 62.6 °F 59.0 °F 88% 30.13 in 10.0 mi SSW 8.1 mph - N/A   Mostly Cloudy
7:35 AM 62.6 °F 59.0 °F 88% 30.13 in 10.0 mi SSW 8.1 mph - N/A   Mostly Cloudy
7:55 AM 62.6 °F 59.0 °F 88% 30.14 in 10.0 mi SSW 6.9 mph - N/A   Mostly Cloudy
8:15 AM 62.6 °F 60.8 °F 94% 30.15 in 10.0 mi SSW 9.2 mph - N/A   Overcast
8:55 AM 64.4 °F 60.8 °F 88% 30.16 in 10.0 mi SW 10.4 mph - N/A   Mostly Cloudy
9:15 AM 64.4 °F 60.8 °F 88% 30.16 in 10.0 mi SW 11.5 mph - N/A   Mostly Cloudy
9:35 AM 64.4 °F 59.0 °F 83% 30.17 in 10.0 mi SW 9.2 mph - N/A   Mostly Cloudy
9:55 AM 66.2 °F 59.0 °F 78% 30.17 in 10.0 mi SSW 10.4 mph - N/A   Mostly Cloudy
10:15 AM 68.0 °F 59.0 °F 73% 30.17 in 10.0 mi SW 9.2 mph - N/A   Mostly Cloudy
10:35 AM 68.0 °F 59.0 °F 73% 30.17 in 10.0 mi SSW 8.1 mph - N/A   Partly Cloudy
10:55 AM 68.0 °F 59.0 °F 73% 30.17 in 10.0 mi SW 8.1 mph - N/A   Scattered Clouds
11:15 AM 68.0 °F 59.0 °F 73% 30.17 in 10.0 mi SW 10.4 mph - N/A   Partly Cloudy
11:35 AM 69.8 °F 59.0 °F 68% 30.17 in 10.0 mi South 6.9 mph - N/A   Clear
11:55 AM 71.6 °F 59.0 °F 64% 30.16 in 10.0 mi SSW 5.8 mph - N/A   Clear
12:15 PM 71.6 °F 59.0 °F 64% 30.17 in 10.0 mi SW 6.9 mph - N/A   Clear
12:35 PM 73.4 °F 59.0 °F 61% 30.17 in 10.0 mi SSW 6.9 mph - N/A   Clear
12:55 PM 73.4 °F 59.0 °F 61% 30.16 in 10.0 mi SW 4.6 mph - N/A   Scattered Clouds
1:15 PM 73.4 °F 59.0 °F 61% 30.15 in 10.0 mi SW 9.2 mph - N/A   Scattered Clouds
1:35 PM 75.2 °F 59.0 °F 57% 30.14 in 10.0 mi SSW 8.1 mph - N/A   Clear
1:55 PM 75.2 °F 59.0 °F 57% 30.13 in 10.0 mi SSW 9.2 mph - N/A   Partly Cloudy
2:15 PM 75.2 °F 57.2 °F 53% 30.13 in 10.0 mi SW 9.2 mph - N/A   Partly Cloudy
2:35 PM 75.2 °F 57.2 °F 53% 30.12 in 10.0 mi SW 11.5 mph - N/A   Partly Cloudy
2:55 PM 77.0 °F 57.2 °F 50% 30.11 in 10.0 mi SSW 9.2 mph - N/A   Scattered Clouds
3:15 PM 77.0 °F 57.2 °F 50% 30.11 in 10.0 mi SSW 9.2 mph - N/A   Scattered Clouds
3:35 PM 77.0 °F 55.4 °F 47% 30.11 in 10.0 mi SSW 10.4 mph - N/A   Partly Cloudy
3:55 PM 77.0 °F 55.4 °F 47% 30.11 in 10.0 mi SSW 10.4 mph - N/A   Partly Cloudy
4:15 PM 77.0 °F 55.4 °F 47% 30.10 in 10.0 mi SW 9.2 mph 18.4 mph N/A   Clear
4:35 PM 77.0 °F 55.4 °F 47% 30.10 in 10.0 mi SW 12.7 mph - N/A   Clear
4:55 PM 77.0 °F 55.4 °F 47% 30.10 in 10.0 mi SW 12.7 mph 17.3 mph N/A   Clear
5:15 PM 75.2 °F 55.4 °F 50% 30.11 in 10.0 mi SSW 10.4 mph - N/A   Clear
5:35 PM 75.2 °F 55.4 °F 50% 30.11 in 10.0 mi SSW 10.4 mph 17.3 mph N/A   Clear
5:55 PM 73.4 °F 55.4 °F 53% 30.11 in 10.0 mi SSW 8.1 mph - N/A   Clear
6:15 PM 73.4 °F 55.4 °F 53% 30.11 in 10.0 mi SSW 9.2 mph - N/A   Clear
6:55 PM 71.6 °F 55.4 °F 57% 30.12 in 10.0 mi SW 4.6 mph - N/A   Clear
7:15 PM 68.0 °F 55.4 °F 64% 30.12 in 10.0 mi Calm Calm - N/A   Clear
7:35 PM 66.2 °F 55.4 °F 68% 30.12 in 10.0 mi Calm Calm - N/A   Clear
7:55 PM 62.6 °F 55.4 °F 77% 30.12 in 10.0 mi SE 4.6 mph - N/A   Clear
8:15 PM 62.6 °F 55.4 °F 77% 30.12 in 10.0 mi SSE 3.5 mph - N/A   Clear
8:35 PM 60.8 °F 55.4 °F 82% 30.13 in 10.0 mi SSE 4.6 mph - N/A   Clear
8:55 PM 60.8 °F 55.4 °F 82% 30.13 in 10.0 mi South 4.6 mph - N/A   Clear
9:15 PM 62.6 °F 55.4 °F 77% 30.13 in 10.0 mi South 4.6 mph - N/A   Clear
9:35 PM 62.6 °F 55.4 °F 77% 30.14 in 10.0 mi South 3.5 mph - N/A   Clear
9:55 PM 64.4 °F 55.4 °F 73% 30.14 in 10.0 mi South 4.6 mph - N/A   Clear
10:15 PM 64.4 °F 55.4 °F 73% 30.14 in 10.0 mi South 4.6 mph - N/A   Clear
10:35 PM 62.6 °F 53.6 °F 72% 30.14 in 10.0 mi South 4.6 mph - N/A   Clear
10:55 PM 64.4 °F 55.4 °F 73% 30.15 in 10.0 mi South 5.8 mph - N/A   Clear
11:15 PM 64.4 °F 53.6 °F 68% 30.15 in 10.0 mi SW 3.5 mph - N/A   Clear
11:35 PM 60.8 °F 53.6 °F 77% 30.15 in 10.0 mi Calm Calm - N/A   Clear
11:55 PM 60.8 °F 53.6 °F 77% 30.15 in 10.0 mi Calm Calm - N/A   Clear